Location: Unspecified
(0.0000°N, 0.0000°E)
Time: 01:03:54
(UTC+01:00)

PROBA 2 - Visible Passes

Search period start: 23 January 2018 00:00
Search period end: 02 February 2018 00:00
Orbit: 706 x 725 km, 98.2° (Epoch: 21 January)

Date Brightness Start Highest point End Pass type
(mag) Time Alt. Az. Time Alt. Az. Time Alt. Az.
23 Jan ? 06:33:37 10° SE 06:37:20 23° ENE 06:41:01 10° NNE visible
24 Jan ? 19:42:48 10° N 19:47:21 42° WNW 19:51:57 10° SSW visible
25 Jan ? 06:29:37 10° SE 06:33:05 20° ENE 06:36:32 10° NNE visible
25 Jan ? 20:33:33 10° WNW 20:34:05 10° WNW 20:34:39 10° W visible
26 Jan ? 19:38:28 10° N 19:43:07 48° WNW 19:47:49 10° SSW visible
27 Jan ? 06:25:40 10° ESE 06:28:50 18° ENE 06:31:58 10° NE visible
27 Jan ? 20:28:07 10° NW 20:29:51 12° WNW 20:31:36 10° W visible
28 Jan ? 19:34:08 10° N 19:38:53 55° WNW 19:43:39 10° SSW visible
29 Jan ? 06:21:47 10° ESE 06:24:36 16° ENE 06:27:22 10° NE visible
29 Jan ? 20:23:14 10° NW 20:25:37 14° WNW 20:28:00 10° WSW visible
30 Jan ? 19:29:50 10° N 19:34:38 62° WNW 19:39:27 10° SSW visible
31 Jan ? 06:18:00 10° ESE 06:20:20 14° ENE 06:22:41 10° NE visible
31 Jan ? 20:18:33 10° NW 20:21:23 16° WNW 20:24:13 10° WSW visible
